 day,  time,  air_temp(C),  RH(%),  ground_temp10cm(C),  ground_temp20cm(C),  ground_temp40cm(C),  precipitation(mm/h),  Solar_Radiation(MJ/m2h),  lack, 
 07/11/01, 01:00,   7.4,  89,  10.1,  11.4,  12.1,   0.0,  0.00, 
 07/11/01, 02:00,   8.1,  82,  10.0,  11.4,  12.2,   0.0,  0.00, 
 07/11/01, 03:00,   8.0,  82,   9.9,  11.3,  12.2,   0.0,  0.00, 
 07/11/01, 04:00,   8.6,  74,   9.9,  11.2,  12.2,   0.0,  0.00, 
 07/11/01, 05:00,   8.3,  75,   9.8,  11.1,  12.2,   0.0,  0.00, 
 07/11/01, 06:00,   8.4,  78,   9.8,  11.1,  12.1,   0.0,  0.00, 
 07/11/01, 07:00,   9.0,  79,   9.7,  11.0,  12.2,   0.0,  0.00, 
 07/11/01, 08:00,  10.1,  78,   9.7,  11.0,  12.2,   0.0,  0.24, 
 07/11/01, 09:00,  11.2,  73,   9.8,  10.9,  12.2,   0.0,  0.96, 
 07/11/01, 10:00,  11.8,  72,  10.0,  10.9,  12.1,   0.0,  0.75, 
 07/11/01, 11:00,  10.4,  78,  10.3,  10.9,  12.1,   0.0,  0.20, 
 07/11/01, 12:00,   8.8,  99,  10.4,  10.8,  12.1,   0.5,  0.09, 
 07/11/01, 13:00,   8.0,  99,  10.4,  10.9,  12.1,   0.5,  0.06, 
 07/11/01, 14:00,   7.8,  99,  10.4,  10.9,  12.1,   0.0,  0.07, 
 07/11/01, 15:00,   8.1,  99,  10.4,  10.9,  12.1,   0.0,  0.12, 
 07/11/01, 16:00,   7.3,  99,  10.4,  10.9,  12.0,   0.0,  0.02, 
 07/11/01, 17:00,   7.0,  97,  10.4,  10.9,  12.1,   0.5,  0.00, 
 07/11/01, 18:00,   7.0,  94,  10.3,  10.9,  12.1,   0.0,  0.00, 
 07/11/01, 19:00,   6.5,  98,  10.2,  10.9,  12.1,   0.0,  0.00, 
 07/11/01, 20:00,   7.3,  88,  10.1,  10.9,  12.1,   0.0,  0.00, 
 07/11/01, 21:00,   6.8,  93,  10.0,  10.9,  12.0,   0.0,  0.00, 
 07/11/01, 22:00,   6.5,  92,   9.9,  10.9,  12.0,   0.0,  0.00, 
 07/11/01, 23:00,   6.2,  93,   9.8,  10.8,  12.0,   0.0,  0.00, 
 07/11/02, 00:00,   6.3,  88,   9.6,  10.8,  12.0,   0.0,  0.00, 
 07/11/02, 01:00,   6.5,  85,   9.5,  10.8,  12.0,   0.0,  0.00, 
 07/11/02, 02:00,   5.5,  96,   9.4,  10.7,  12.0,   0.0,  0.00, 
 07/11/02, 03:00,   5.6,  88,   9.3,  10.7,  12.0,   0.0,  0.00, 
 07/11/02, 04:00,   5.1,  89,   9.2,  10.6,  12.0,   0.0,  0.00, 
 07/11/02, 05:00,   4.8,  91,   9.1,  10.6,  12.0,   0.0,  0.00, 
 07/11/02, 06:00,   4.4,  95,   9.0,  10.5,  12.0,   0.0,  0.00, 
 07/11/02, 07:00,   4.1,  99,   8.9,  10.5,  12.0,   0.0,  0.00, 
 07/11/02, 08:00,   3.6,  99,   8.9,  10.4,  12.0,   0.0,  0.04, 
 07/11/02, 09:00,   3.6,  99,   8.8,  10.4,  11.8,   0.0,  0.10, 
 07/11/02, 10:00,   4.5,  89,   8.8,  10.3,  11.9,   0.0,  0.36, 
 07/11/02, 11:00,   5.7,  85,   8.9,  10.3,  11.9,   0.0,  0.73, 
 07/11/02, 12:00,   5.8,  77,   9.1,  10.2,  11.9,   0.0,  0.83, 
 07/11/02, 13:00,   6.2,  73,   9.3,  10.2,  11.9,   0.0,  0.90, 
 07/11/02, 14:00,   6.0,  69,   9.6,  10.2,  11.9,   0.0,  0.97, 
 07/11/02, 15:00,   6.1,  69,   9.7,  10.2,  11.9,   0.0,  0.66, 
 07/11/02, 16:00,   5.5,  66,   9.8,  10.2,  11.8,   0.0,  0.45, 
 07/11/02, 17:00,   4.8,  70,   9.7,  10.3,  11.8,   0.0,  0.16, 
 07/11/02, 18:00,   2.1,  84,   9.5,  10.3,  11.8,   0.0,  0.00, 
 07/11/02, 19:00,   1.0,  90,   9.2,  10.3,  11.8,   0.0,  0.00, 
 07/11/02, 20:00,   1.6,  88,   8.9,  10.3,  11.8,   0.0,  0.00, 
 07/11/02, 21:00,   2.6,  81,   8.6,  10.2,  11.8,   0.0,  0.00, 
 07/11/02, 22:00,   0.3,  93,   8.3,  10.2,  11.8,   0.0,  0.00, 
 07/11/02, 23:00,  -0.2,  93,   8.0,  10.1,  11.7,   0.0,  0.00, 
 07/11/03, 00:00,   1.8,  80,   7.7,  10.0,  11.6,   0.0,  0.00, 
 07/11/03, 01:00,   1.8,  75,   7.5,   9.9,  11.7,   0.0,  0.00, 
 07/11/03, 02:00,   2.2,  73,   7.3,   9.8,  11.7,   0.0,  0.00, 
 07/11/03, 03:00,   0.0,  86,   7.1,   9.7,  11.7,   0.0,  0.00, 
 07/11/03, 04:00,   1.2,  79,   6.9,   9.6,  11.7,   0.0,  0.00, 
 07/11/03, 05:00,   0.7,  83,   6.8,   9.5,  11.7,   0.0,  0.00, 
 07/11/03, 06:00,   1.4,  79,   6.7,   9.4,  11.7,   0.0,  0.00, 
 07/11/03, 07:00,   2.1,  77,   6.6,   9.3,  11.5,   0.0,  0.03, 
 07/11/03, 08:00,   1.8,  88,   6.6,   9.2,  11.5,   0.0,  0.17, 
 07/11/03, 09:00,   3.5,  75,   6.7,   9.1,  11.6,   0.0,  0.99, 
 07/11/03, 10:00,   5.3,  70,   6.9,   9.0,  11.6,   0.0,  1.10, 
 07/11/03, 11:00,   7.2,  67,   7.5,   8.9,  11.5,   0.0,  2.34, 
 07/11/03, 12:00,   7.9,  66,   8.0,   8.9,  11.5,   0.0,  2.54, 
 07/11/03, 13:00,   9.6,  61,   9.0,   8.9,  11.5,   0.0,  2.46, 
 07/11/03, 14:00,  10.3,  57,   9.9,   9.0,  11.5,   0.0,  2.09, 
 07/11/03, 15:00,   8.8,  58,  10.4,   9.1,  11.4,   0.0,  1.52, 
 07/11/03, 16:00,   8.1,  60,  10.3,   9.3,  11.4,   0.0,  0.81, 
 07/11/03, 17:00,   6.7,  69,  10.0,   9.5,  11.4,   0.0,  0.08, 
 07/11/03, 18:00,   5.9,  72,   9.7,   9.6,  11.4,   0.0,  0.00, 
 07/11/03, 19:00,   4.7,  79,   9.3,   9.7,  11.3,   0.0,  0.00, 
 07/11/03, 20:00,   2.6,  92,   9.0,   9.7,  11.3,   0.0,  0.00, 
 07/11/03, 21:00,   2.1,  95,   8.7,   9.7,  11.3,   0.0,  0.00, 
 07/11/03, 22:00,   3.8,  89,   8.4,   9.7,  11.3,   0.0,  0.00, 
 07/11/03, 23:00,   2.7,  93,   8.2,   9.7,  11.3,   0.0,  0.00, 
 07/11/04, 00:00,   2.6,  94,   7.9,   9.6,  11.3,   0.0,  0.00, 
 07/11/04, 01:00,   2.4,  94,   7.7,   9.6,  11.3,   0.0,  0.00, 
 07/11/04, 02:00,   2.7,  94,   7.5,   9.5,  11.3,   0.0,  0.00, 
 07/11/04, 03:00,   2.8,  90,   7.4,   9.4,  11.3,   0.0,  0.00, 
 07/11/04, 04:00,   3.3,  77,   7.3,   9.3,  11.2,   0.0,  0.00, 
 07/11/04, 05:00,   2.0,  83,   7.1,   9.2,  11.2,   0.0,  0.00, 
 07/11/04, 06:00,   3.4,  72,   7.0,   9.2,  11.2,   0.0,  0.00, 
 07/11/04, 07:00,   1.6,  85,   6.8,   9.1,  11.2,   0.0,  0.03, 
 07/11/04, 08:00,   3.9,  76,   6.7,   9.0,  11.2,   0.0,  0.46, 
 07/11/04, 09:00,   5.5,  79,   6.6,   8.9,  11.2,   0.0,  1.44, 
 07/11/04, 10:00,   6.4,  83,   6.9,   8.8,  11.2,   0.0,  1.84, 
 07/11/04, 11:00,   6.9,  86,   7.5,   8.8,  11.2,   0.0,  1.66, 
 07/11/04, 12:00,   7.3,  85,   8.1,   8.7,  11.1,   0.0,  1.64, 
 07/11/04, 13:00,   8.8,  80,   8.7,   8.9,  11.1,   0.0,  2.13, 
 07/11/04, 14:00,   8.6,  79,   9.4,   8.9,  11.1,   0.0,  1.92, 
 07/11/04, 15:00,   8.5,  77,   9.9,   9.0,  11.1,   0.0,  1.35, 
 07/11/04, 16:00,   7.6,  80,   9.9,   9.1,  11.1,   0.0,  0.65, 
 07/11/04, 17:00,   6.0,  88,   9.8,   9.3,  11.0,   0.0,  0.10, 
 07/11/04, 18:00,   5.4,  90,   9.6,   9.4,  11.0,   0.0,  0.00, 
 07/11/04, 19:00,   4.3,  96,   9.3,   9.5,  11.0,   0.0,  0.00, 
 07/11/04, 20:00,   4.0,  96,   9.1,   9.5,  11.0,   0.0,  0.00, 
 07/11/04, 21:00,   4.6,  94,   8.9,   9.5,  11.0,   0.0,  0.00, 
 07/11/04, 22:00,   3.2,  95,   8.6,   9.5,  11.0,   0.0,  0.00, 
 07/11/04, 23:00,   5.2,  82,   8.4,   9.5,  11.0,   0.0,  0.00, 
 07/11/05, 00:00,   4.2,  90,   8.2,   9.5,  11.0,   0.0,  0.00, 
 07/11/05, 01:00,   3.7,  88,   8.0,   9.4,  11.0,   0.0,  0.00, 
 07/11/05, 02:00,   3.7,  88,   7.8,   9.4,  11.0,   0.0,  0.00, 
 07/11/05, 03:00,   3.8,  90,   7.7,   9.3,  11.0,   0.0,  0.00, 
 07/11/05, 04:00,   3.0,  94,   7.5,   9.3,  11.0,   0.0,  0.00, 
 07/11/05, 05:00,   2.7,  96,   7.4,   9.2,  11.0,   0.0,  0.00, 
 07/11/05, 06:00,   3.5,  89,   7.2,   9.1,  10.9,   0.0,  0.00, 
 07/11/05, 07:00,   6.0,  62,   7.1,   9.1,  10.9,   0.0,  0.03, 
 07/11/05, 08:00,   6.1,  77,   7.0,   9.0,  10.9,   0.0,  0.36, 
 07/11/05, 09:00,   8.4,  57,   7.1,   8.9,  10.9,   0.0,  1.12, 
 07/11/05, 10:00,   9.7,  60,   7.5,   8.9,  10.9,   0.0,  1.21, 
 07/11/05, 11:00,  10.9,  60,   7.9,   8.8,  10.9,   0.0,  1.81, 
 07/11/05, 12:00,  12.0,  55,   8.5,   8.9,  10.9,   0.0,  2.60, 
 07/11/05, 13:00,  11.0,  68,   9.3,   8.9,  10.9,   0.0,  1.53, 
 07/11/05, 14:00,  11.4,  71,   9.9,   8.9,  10.9,   0.0,  1.10, 
 07/11/05, 15:00,  10.6,  75,  10.2,   9.1,  10.9,   0.0,  0.66, 
 07/11/05, 16:00,   9.7,  81,  10.3,   9.2,  10.8,   0.0,  0.28, 
 07/11/05, 17:00,   9.2,  81,  10.3,   9.4,  10.8,   0.0,  0.04, 
 07/11/05, 18:00,   9.3,  77,  10.1,   9.5,  10.8,   0.0,  0.00, 
 07/11/05, 19:00,   9.7,  79,  10.0,   9.6,  10.8,   0.0,  0.00, 
 07/11/05, 20:00,   9.8,  79,   9.8,   9.7,  10.8,   0.0,  0.00, 
 07/11/05, 21:00,  10.1,  78,   9.7,   9.7,  10.8,   0.0,  0.00, 
 07/11/05, 22:00,  10.5,  75,   9.7,   9.7,  10.8,   0.0,  0.00, 
 07/11/05, 23:00,   9.1,  82,   9.6,   9.8,  10.8,   0.0,  0.00, 
 07/11/06, 00:00,   8.1,  95,   9.5,   9.8,  10.8,   0.0,  0.00, 
 07/11/06, 01:00,   8.1,  98,   9.5,   9.8,  10.8,   0.5,  0.00, 
 07/11/06, 02:00,   7.8,  99,   9.4,   9.9,  10.8,   1.5,  0.00, 
 07/11/06, 03:00,   7.4,  99,   9.3,   9.8,  10.8,   1.5,  0.00, 
 07/11/06, 04:00,   7.0,  99,   9.2,   9.8,  10.8,   1.5,  0.00, 
 07/11/06, 05:00,   7.2,  94,   9.2,   9.9,  10.8,   0.5,  0.00, 
 07/11/06, 06:00,   7.7,  92,   9.1,   9.8,  10.8,   0.5,  0.00, 
 07/11/06, 07:00,   7.0,  99,   9.0,   9.7,  10.8,   0.5,  0.00, 
 07/11/06, 08:00,   8.2,  91,   9.0,   9.7,  10.8,   0.0,  0.14, 
 07/11/06, 09:00,   8.8,  93,   9.0,   9.7,  10.8,   0.0,  0.35, 
 07/11/06, 10:00,   8.7,  99,   9.1,   9.7,  10.8,   0.0,  0.54, 
 07/11/06, 11:00,   9.1,  99,   9.3,   9.7,  10.8,   0.0,  0.61, 
 07/11/06, 12:00,   9.0,  99,   9.6,   9.7,  10.8,   0.0,  0.54, 
 07/11/06, 13:00,   9.1,  99,   9.8,   9.7,  10.8,   0.0,  0.51, 
 07/11/06, 14:00,   8.0,  99,  10.0,   9.7,  10.8,   0.0,  0.30, 
 07/11/06, 15:00,   7.5,  99,  10.0,   9.8,  10.8,   0.0,  0.19, 
 07/11/06, 16:00,   7.4,  99,  10.0,   9.8,  10.8,   0.0,  0.08, 
 07/11/06, 17:00,   7.0,  99,  10.0,   9.9,  10.8,   0.0,  0.00, 
 07/11/06, 18:00,   6.4,  99,   9.9,  10.0,  10.8,   0.0,  0.00, 
 07/11/06, 19:00,   6.1,  99,   9.8,  10.1,  10.8,   0.0,  0.00, 
 07/11/06, 20:00,   6.2,  99,   9.7,  10.0,  10.8,   0.0,  0.00, 
 07/11/06, 21:00,   5.8,  99,   9.6,  10.0,  10.8,   0.0,  0.00, 
 07/11/06, 22:00,   5.7,  99,   9.5,  10.0,  10.8,   0.0,  0.00, 
 07/11/06, 23:00,   5.5,  99,   9.4,  10.1,  10.8,   0.5,  0.00, 
 07/11/07, 00:00,   5.1,  99,   9.3,   9.9,  10.8,   0.0,  0.00, 
 07/11/07, 01:00,   5.1,  99,   9.2,   9.9,  10.8,   0.0,  0.00, 
 07/11/07, 02:00,   4.8,  99,   9.1,   9.9,  10.9,   0.0,  0.00, 
 07/11/07, 03:00,   4.5,  99,   9.1,   9.9,  10.9,   0.0,  0.00, 
 07/11/07, 04:00,   4.2,  99,   9.0,   9.9,  10.9,   0.0,  0.00, 
 07/11/07, 05:00,   4.1,  99,   8.9,   9.8,  10.9,   0.0,  0.00, 
 07/11/07, 06:00,   3.8,  99,   8.8,   9.8,  10.9,   0.0,  0.00, 
 07/11/07, 07:00,   3.0,  99,   8.7,   9.7,  10.9,   0.0,  0.01, 
 07/11/07, 08:00,   3.5,  99,   8.6,   9.7,  10.9,   0.0,  0.15, 
 07/11/07, 09:00,   3.4,  99,   8.6,   9.7,  10.9,   0.0,  0.65, 
 07/11/07, 10:00,   5.0,  99,   8.8,   9.6,  10.9,   0.0,  1.77, 
 07/11/07, 11:00,   6.7,  89,   9.4,   9.6,  10.9,   0.0,  2.35, 
 07/11/07, 12:00,   9.1,  64,   9.8,   9.6,  10.9,   0.0,  2.49, 
 07/11/07, 13:00,  10.0,  68,  10.5,   9.6,  10.9,   0.0,  2.39, 
 07/11/07, 14:00,  10.2,  57,  11.2,   9.8,  11.0,   0.0,  1.98, 
 07/11/07, 15:00,   9.4,  46,  11.5,   9.9,  10.9,   0.0,  1.41, 
 07/11/07, 16:00,   8.6,  47,  11.3,  10.1,  10.8,   0.0,  0.66, 
 07/11/07, 17:00,   7.0,  67,  11.0,  10.2,  10.8,   0.0,  0.06, 
 07/11/07, 18:00,   4.1,  83,  10.6,  10.3,  10.8,   0.0,  0.00, 
 07/11/07, 19:00,   3.2,  88,  10.2,  10.4,  10.8,   0.0,  0.00, 
 07/11/07, 20:00,   2.6,  93,   9.8,  10.4,  10.8,   0.0,  0.00, 
 07/11/07, 21:00,   2.0,  96,   9.4,  10.3,  10.8,   0.0,  0.00, 
 07/11/07, 22:00,   1.8,  93,   9.0,  10.2,  10.8,   0.0,  0.00, 
 07/11/07, 23:00,   1.3,  91,   8.7,  10.1,  10.9,   0.0,  0.00, 
 07/11/08, 00:00,   1.8,  77,   8.4,  10.0,  10.9,   0.0,  0.00, 
 07/11/08, 01:00,   2.0,  81,   8.1,   9.9,  10.9,   0.0,  0.00, 
 07/11/08, 02:00,   2.8,  65,   7.8,   9.8,  10.9,   0.0,  0.00, 
 07/11/08, 03:00,   3.2,  57,   7.6,   9.7,  10.9,   0.0,  0.00, 
 07/11/08, 04:00,   3.7,  48,   7.4,   9.6,  10.9,   0.0,  0.00, 
 07/11/08, 05:00,   3.0,  50,   7.2,   9.5,  10.9,   0.0,  0.00, 
 07/11/08, 06:00,   3.0,  72,   7.1,   9.4,  10.9,   0.0,  0.00, 
 07/11/08, 07:00,   3.3,  80,   6.9,   9.3,  10.9,   0.0,  0.01, 
 07/11/08, 08:00,   5.2,  82,   6.7,   9.1,  10.9,   0.0,  0.51, 
 07/11/08, 09:00,   8.3,  76,   6.7,   9.0,  10.9,   0.0,  1.22, 
 07/11/08, 10:00,   9.5,  70,   7.0,   8.9,  10.9,   0.0,  1.77, 
 07/11/08, 11:00,   8.4,  78,   7.8,   8.8,  10.8,   0.0,  1.97, 
 07/11/08, 12:00,  10.0,  72,   8.4,   8.9,  10.8,   0.0,  2.27, 
 07/11/08, 13:00,  11.1,  64,   9.2,   8.8,  10.8,   0.0,  2.27, 
 07/11/08, 14:00,  11.4,  56,  10.1,   8.9,  10.8,   0.0,  1.92, 
 07/11/08, 15:00,  10.7,  49,  10.5,   9.0,  10.8,   0.0,  1.37, 
 07/11/08, 16:00,   9.5,  56,  10.4,   9.2,  10.8,   0.5,  0.57, 
 07/11/08, 17:00,   7.5,  71,  10.1,   9.4,  10.7,   0.0,  0.10, 
 07/11/08, 18:00,   6.9,  74,   9.8,   9.5,  10.7,   0.0,  0.00, 
 07/11/08, 19:00,   4.4,  87,   9.5,   9.6,  10.7,   0.0,  0.00, 
 07/11/08, 20:00,   4.3,  91,   9.2,   9.6,  10.7,   0.0,  0.00, 
 07/11/08, 21:00,   4.2,  96,   8.9,   9.6,  10.7,   0.0,  0.00, 
 07/11/08, 22:00,   3.9,  97,   8.6,   9.6,  10.7,   0.5,  0.00, 
 07/11/08, 23:00,   4.2,  95,   8.3,   9.6,  10.7,   0.0,  0.00, 
 07/11/09, 00:00,   3.5,  96,   8.1,   9.5,  10.7,   0.0,  0.00, 
 07/11/09, 01:00,   3.5,  96,   7.9,   9.4,  10.7,   0.0,  0.00, 
 07/11/09, 02:00,   2.8,  96,   7.7,   9.4,  10.7,   0.0,  0.00, 
 07/11/09, 03:00,   2.3,  92,   7.5,   9.3,  10.7,   0.0,  0.00, 
 07/11/09, 04:00,   4.8,  70,   7.3,   9.2,  10.7,   0.0,  0.00, 
 07/11/09, 05:00,   5.4,  70,   7.1,   9.1,  10.7,   0.0,  0.00, 
 07/11/09, 06:00,   2.6,  70,   6.9,   9.0,  10.7,   0.0,  0.00, 
 07/11/09, 07:00,   2.6,  76,   6.8,   8.9,  10.7,   0.0,  0.01, 
 07/11/09, 08:00,   5.0,  84,   6.7,   8.8,  10.6,   0.0,  0.41, 
 07/11/09, 09:00,   6.0,  74,   6.8,   8.8,  10.5,   0.0,  0.64, 
 07/11/09, 10:00,   6.8,  77,   7.0,   8.7,  10.6,   0.0,  1.43, 
 07/11/09, 11:00,   8.3,  74,   7.5,   8.6,  10.6,   0.0,  1.61, 
 07/11/09, 12:00,   8.7,  71,   8.0,   8.6,  10.6,   0.0,  1.84, 
 07/11/09, 13:00,   9.9,  66,   8.7,   8.6,  10.6,   0.0,  2.00, 
 07/11/09, 14:00,   9.2,  65,   9.3,   8.7,  10.6,   0.0,  1.44, 
 07/11/09, 15:00,   9.7,  61,   9.6,   8.8,  10.5,   0.0,  1.05, 
 07/11/09, 16:00,   9.5,  60,   9.6,   8.9,  10.5,   0.0,  0.62, 
 07/11/09, 17:00,   7.2,  73,   9.4,   9.0,  10.5,   0.0,  0.08, 
 07/11/09, 18:00,   6.1,  77,   9.3,   9.1,  10.5,   0.0,  0.00, 
 07/11/09, 19:00,   6.1,  76,   9.1,   9.2,  10.5,   0.0,  0.00, 
 07/11/09, 20:00,   7.5,  59,   8.9,   9.2,  10.5,   0.0,  0.00, 
 07/11/09, 21:00,   7.0,  62,   8.7,   9.3,  10.5,   0.0,  0.00, 
 07/11/09, 22:00,   8.1,  54,   8.5,   9.3,  10.5,   0.0,  0.00, 
 07/11/09, 23:00,   6.0,  66,   8.4,   9.2,  10.5,   0.0,  0.00, 
 07/11/10, 00:00,   7.4,  63,   8.3,   9.2,  10.5,   0.0,  0.00, 
 07/11/10, 01:00,   7.0,  76,   8.2,   9.2,  10.5,   0.0,  0.00, 
 07/11/10, 02:00,   7.9,  67,   8.2,   9.2,  10.5,   0.0,  0.00, 
 07/11/10, 03:00,   6.1,  90,   8.2,   9.1,  10.5,   0.0,  0.00, 
 07/11/10, 04:00,   5.9,  99,   8.1,   9.1,  10.4,   0.5,  0.00, 
 07/11/10, 05:00,   6.8,  99,   8.1,   9.1,  10.5,   0.5,  0.00, 
 07/11/10, 06:00,   5.7,  99,   8.1,   9.0,  10.5,   0.5,  0.00, 
 07/11/10, 07:00,   6.4,  99,   8.0,   9.0,  10.4,   2.0,  0.00, 
 07/11/10, 08:00,   7.4,  99,   8.0,   9.0,  10.4,   3.5,  0.04, 
 07/11/10, 09:00,   7.3,  99,   8.0,   9.0,  10.4,   2.5,  0.15, 
 07/11/10, 10:00,   8.0,  99,   8.1,   8.9,  10.4,   1.0,  0.36, 
 07/11/10, 11:00,  11.0,  97,   8.3,   8.9,  10.4,   0.0,  1.21, 
 07/11/10, 12:00,  10.2,  99,   8.7,   8.9,  10.4,   0.0,  1.22, 
 07/11/10, 13:00,   9.6,  99,   9.1,   8.9,  10.4,   1.0,  0.44, 
 07/11/10, 14:00,   9.5,  99,   9.3,   9.0,  10.4,   0.0,  0.32, 
 07/11/10, 15:00,   9.7,  99,   9.4,   9.0,  10.3,   0.0,  0.70, 
 07/11/10, 16:00,   9.4,  99,   9.6,   9.1,  10.3,   0.5,  0.36, 
 07/11/10, 17:00,   8.6,  99,   9.8,   9.2,  10.3,   0.0,  0.12, 
 07/11/10, 18:00,   8.5,  99,   9.7,   9.3,  10.3,   0.0,  0.00, 
 07/11/10, 19:00,   8.4,  98,   9.6,   9.3,  10.3,   0.0,  0.00, 
 07/11/10, 20:00,   7.9,  99,   9.3,   9.4,  10.3,   0.0,  0.00, 
 07/11/10, 21:00,   8.2,  99,   9.2,   9.4,  10.3,   0.0,  0.00, 
 07/11/10, 22:00,   8.1,  99,   9.1,   9.4,  10.3,   1.5,  0.00, 
 07/11/10, 23:00,   8.2,  99,   8.9,   9.4,  10.3,   0.5,  0.00, 
 07/11/11, 00:00,   7.9,  99,   8.9,   9.4,  10.3,   1.0,  0.00, 
 07/11/11, 01:00,   7.8,  99,   9.0,   9.4,  10.3,   0.0,  0.00, 
 07/11/11, 02:00,   8.0,  99,   8.8,   9.4,  10.3,   0.0,  0.00, 
 07/11/11, 03:00,   8.0,  99,   8.8,   9.4,  10.3,   0.0,  0.00, 
 07/11/11, 04:00,   7.9,  99,   8.8,   9.4,  10.3,   0.0,  0.00, 
 07/11/11, 05:00,   7.6,  99,   8.8,   9.4,  10.3,   0.0,  0.00, 
 07/11/11, 06:00,   7.4,  99,   8.7,   9.4,  10.3,   0.0,  0.00, 
 07/11/11, 07:00,   7.2,  99,   8.6,   9.4,  10.3,   0.0,  0.00, 
 07/11/11, 08:00,   7.1,  98,   8.6,   9.3,  10.3,   0.0,  0.04, 
 07/11/11, 09:00,   6.8,  99,   8.6,   9.3,  10.3,   2.5,  0.05, 
 07/11/11, 10:00,   6.5,  99,   8.5,   9.3,  10.3,   0.5,  0.06, 
 07/11/11, 11:00,   7.1,  99,   8.6,   9.3,  10.3,   0.0,  0.22, 
 07/11/11, 12:00,   8.2,  96,   8.7,   9.3,  10.3,   0.0,  0.94, 
 07/11/11, 13:00,   6.7,  99,   8.9,   9.3,  10.3,   0.5,  0.63, 
 07/11/11, 14:00,   5.2,  99,   9.0,   9.3,  10.3,   1.5,  0.15, 
 07/11/11, 15:00,   4.3,  97,   8.9,   9.3,  10.3,   1.5,  0.12, 
 07/11/11, 16:00,   4.1,  95,   8.8,   9.3,  10.3,   0.5,  0.07, 
 07/11/11, 17:00,   3.7,  94,   8.6,   9.3,  10.3,   0.0,  0.02, 
 07/11/11, 18:00,   3.3,  92,   8.5,   9.3,  10.3,   0.5,  0.00, 
 07/11/11, 19:00,   2.4,  97,   8.3,   9.3,  10.3,   0.0,  0.00, 
 07/11/11, 20:00,   2.3,  94,   8.1,   9.2,  10.3,   0.5,  0.00, 
 07/11/11, 21:00,   1.8,  97,   7.9,   9.2,  10.3,   0.0,  0.00, 
 07/11/11, 22:00,   1.6,  98,   7.7,   9.1,  10.3,   0.5,  0.00, 
 07/11/11, 23:00,   1.8,  96,   7.5,   9.1,  10.3,   0.5,  0.00, 
 07/11/12, 00:00,   1.8,  93,   7.4,   9.0,  10.3,   0.0,  0.00, 
 07/11/12, 01:00,   0.9,  99,   7.2,   8.9,  10.3,   0.5,  0.00, 
 07/11/12, 02:00,   0.7,  99,   7.1,   8.9,  10.3,   1.0,  0.00, 
 07/11/12, 03:00,   0.3,  99,   6.8,   8.8,  10.3,   1.5,  0.00, 
 07/11/12, 04:00,   0.0,  99,   6.6,   8.7,  10.2,   1.5,  0.00, 
 07/11/12, 05:00,   0.0,  99,   6.4,   8.6,  10.1,   2.0,  0.00, 
 07/11/12, 06:00,   0.0,  99,   6.3,   8.5,  10.1,   1.5,  0.00, 
 07/11/12, 07:00,   0.2,  99,   6.2,   8.4,  10.1,   0.0,  0.00, 
 07/11/12, 08:00,  -0.1,  99,   6.1,   8.3,  10.1,   1.0,  0.01, 
 07/11/12, 09:00,   0.0,  99,   6.0,   8.2,  10.2,   1.0,  0.05, 
 07/11/12, 10:00,   0.5,  99,   5.9,   8.1,  10.2,   0.5,  0.13, 
 07/11/12, 11:00,   0.7,  99,   5.8,   8.1,  10.2,   0.0,  0.18, 
 07/11/12, 12:00,   1.7,  99,   5.8,   8.0,  10.1,   1.0,  0.52, 
 07/11/12, 13:00,   1.1,  99,   5.7,   7.9,  10.1,   1.0,  0.35, 
 07/11/12, 14:00,   0.4,  99,   5.7,   7.8,  10.0,   1.5,  0.24, 
 07/11/12, 15:00,   0.5,  99,   5.7,   7.8,  10.1,   1.0,  0.24, 
 07/11/12, 16:00,   0.3,  99,   5.6,   7.7,  10.1,   2.5,  0.04, 
 07/11/12, 17:00,   0.0,  99,   5.5,   7.7,  10.0,   5.0,  0.00, 
 07/11/12, 18:00,  -0.3,  99,   5.4,   7.6,  10.0,   4.0,  0.00, 
 07/11/12, 19:00,  -0.4,  99,   5.3,   7.5,  10.0,   4.5,  0.00, 
 07/11/12, 20:00,   0.7,  97,   5.2,   7.5,   9.9,   2.5,  0.00, 
 07/11/12, 21:00,   1.0,  97,   5.2,   7.4,   9.9,   2.0,  0.00, 
 07/11/12, 22:00,   1.8,  99,   5.1,   7.4,   9.9,   5.0,  0.00, 
 07/11/12, 23:00,   2.4,  99,   5.0,   7.3,   9.9,   2.0,  0.00, 
 07/11/13, 00:00,   2.2,  99,   5.0,   7.2,   9.7,   1.0,  0.00, 
 07/11/13, 01:00,   2.5,  99,   4.9,   7.2,   9.8,   1.0,  0.00, 
 07/11/13, 02:00,   3.0,  99,   4.8,   7.1,   9.7,   0.5,  0.00, 
 07/11/13, 03:00,   2.8,  99,   4.8,   7.0,   9.7,   3.0,  0.00, 
 07/11/13, 04:00,   2.8,  99,   4.6,   6.9,   9.6,   3.5,  0.00, 
 07/11/13, 05:00,   2.5,  99,   4.5,   6.8,   9.5,   2.5,  0.00, 
 07/11/13, 06:00,   2.6,  99,   4.4,   6.6,   9.4,   2.0,  0.00, 
 07/11/13, 07:00,   2.7,  99,   4.3,   6.5,   9.3,   2.0,  0.00, 
 07/11/13, 08:00,   2.7,  99,   4.2,   6.3,   9.3,   2.0,  0.07, 
 07/11/13, 09:00,   2.8,  99,   4.1,   6.2,   9.3,   0.0,  0.27, 
 07/11/13, 10:00,   3.8,  99,   4.1,   6.2,   9.2,   0.5,  0.49, 
 07/11/13, 11:00,   4.2,  99,   4.1,   6.1,   9.1,   1.0,  0.93, 
 07/11/13, 12:00,   4.2,  99,   4.1,   6.0,   9.0,   0.0,  0.65, 
 07/11/13, 13:00,   4.2,  99,   4.1,   5.9,   8.9,   0.0,  0.67, 
 07/11/13, 14:00,   4.4,  99,   4.1,   5.8,   8.9,   0.0,  0.48, 
 07/11/13, 15:00,   4.6,  99,   4.0,   5.8,   8.9,   0.0,  0.38, 
 07/11/13, 16:00,   5.0,  96,   4.0,   5.7,   8.9,   0.0,  0.41, 
 07/11/13, 17:00,   2.6,  99,   4.0,   5.6,   8.8,   0.0,  0.08, 
 07/11/13, 18:00,   2.7,  99,   3.9,   5.6,   8.8,   0.0,  0.00, 
 07/11/13, 19:00,   1.6,  99,   3.8,   5.7,   8.7,   0.0,  0.00, 
 07/11/13, 20:00,   1.5,  99,   3.9,   5.6,   8.7,   0.0,  0.00, 
 07/11/13, 21:00,   1.2,  99,   3.8,   5.6,   8.7,   0.0,  0.00, 
 07/11/13, 22:00,   1.1,  98,   3.8,   5.6,   8.6,   0.0,  0.00, 
 07/11/13, 23:00,   0.6,  98,   3.7,   5.5,   8.6,   0.0,  0.00, 
 07/11/14, 00:00,   1.0,  95,   3.6,   5.5,   8.6,   0.0,  0.00, 
 07/11/14, 01:00,   1.7,  91,   3.6,   5.5,   8.5,   0.0,  0.00, 
 07/11/14, 02:00,   2.1,  89,   3.6,   5.5,   8.5,   0.0,  0.00, 
 07/11/14, 03:00,   1.8,  92,   3.5,   5.5,   8.5,   0.0,  0.00, 
 07/11/14, 04:00,   2.0,  94,   3.5,   5.4,   8.5,   0.0,  0.00, 
 07/11/14, 05:00,   2.6,  94,   3.3,   5.4,   8.5,   0.0,  0.00, 
 07/11/14, 06:00,   1.8,  97,   3.4,   5.4,   8.4,   0.0,  0.00, 
 07/11/14, 07:00,   2.0,  97,   3.4,   5.4,   8.4,   0.0,  0.01, 
 07/11/14, 08:00,   3.1,  99,   3.3,   5.3,   8.4,   0.0,  0.44, 
 07/11/14, 09:00,   6.7,  80,   3.3,   5.3,   8.4,   0.0,  1.13, 
 07/11/14, 10:00,   7.6,  71,   3.5,   5.3,   8.4,   0.0,  1.51, 
 07/11/14, 11:00,   9.4,  68,   3.7,   5.3,   8.3,   0.0,  1.98, 
 07/11/14, 12:00,  10.3,  54,   4.0,   5.2,   8.3,   0.0,  2.23, 
 07/11/14, 13:00,  10.3,  73,   4.3,   5.2,   8.3,   0.0,  2.14, 
 07/11/14, 14:00,   9.6,  55,   4.7,   5.3,   8.3,   0.0,  1.76, 
 07/11/14, 15:00,   8.4,  62,   5.0,   5.3,   8.2,   0.0,  0.86, 
 07/11/14, 16:00,   7.5,  74,   5.1,   5.4,   8.2,   0.5,  0.34, 
 07/11/14, 17:00,   6.1,  83,   5.1,   5.5,   8.3,   0.0,  0.07, 
 07/11/14, 18:00,   4.6,  89,   5.0,   5.5,   8.2,   0.0,  0.00, 
 07/11/14, 19:00,   4.5,  85,   5.0,   5.6,   8.2,   0.0,  0.00, 
 07/11/14, 20:00,   4.3,  85,   4.9,   5.7,   8.1,   0.0,  0.00, 
 07/11/14, 21:00,   2.9,  79,   4.8,   5.7,   8.2,   0.0,  0.00, 
 07/11/14, 22:00,   3.9,  74,   4.7,   5.7,   8.2,   0.0,  0.00, 
 07/11/14, 23:00,   2.4,  81,   4.6,   5.7,   8.2,   0.0,  0.00, 
 07/11/15, 00:00,   2.5,  68,   4.5,   5.7,   8.1,   0.0,  0.00, 
 07/11/15, 01:00,   2.2,  80,   4.3,   5.7,   8.2,   0.0,  0.00, 
 07/11/15, 02:00,   4.7,  67,   4.1,   5.7,   8.1,   0.0,  0.00, 
 07/11/15, 03:00,   4.8,  65,   4.2,   5.7,   8.1,   0.0,  0.00, 
 07/11/15, 04:00,   4.2,  71,   4.1,   5.7,   8.1,   0.0,  0.00, 
 07/11/15, 05:00,   4.6,  71,   4.1,   5.7,   8.1,   0.0,  0.00, 
 07/11/15, 06:00,   4.6,  74,   4.0,   5.7,   8.1,   0.0,  0.00, 
 07/11/15, 07:00,   4.0,  75,   4.0,   5.6,   8.1,   0.0,  0.01, 
 07/11/15, 08:00,   6.4,  66,   3.9,   5.6,   8.2,   0.0,  0.37, 
 07/11/15, 09:00,   6.0,  74,   4.0,   5.6,   8.2,   0.0,  1.05, 
 07/11/15, 10:00,   7.5,  61,   4.2,   5.6,   8.1,   0.0,  0.90, 
 07/11/15, 11:00,   6.2,  76,   4.6,   5.5,   8.0,   0.0,  0.88, 
 07/11/15, 12:00,   6.9,  67,   4.9,   5.6,   8.1,   0.0,  0.61, 
 07/11/15, 13:00,   8.3,  62,   5.3,   5.6,   8.1,   0.0,  2.13, 
 07/11/15, 14:00,   7.5,  68,   5.8,   5.7,   8.1,   0.0,  0.80, 
 07/11/15, 15:00,   7.2,  72,   6.1,   5.8,   8.1,   0.0,  0.35, 
 07/11/15, 16:00,   6.2,  80,   6.2,   5.9,   8.1,   0.0,  0.16, 
 07/11/15, 17:00,   5.7,  83,   6.3,   6.0,   8.1,   0.0,  0.02, 
 07/11/15, 18:00,   5.1,  87,   6.2,   6.1,   8.0,   0.0,  0.00, 
 07/11/15, 19:00,   5.0,  85,   6.1,   6.2,   8.1,   0.0,  0.00, 
 07/11/15, 20:00,   4.3,  97,   6.0,   6.2,   8.0,   0.0,  0.00, 
 07/11/15, 21:00,   3.4,  92,   5.9,   6.3,   8.1,   0.0,  0.00, 
 07/11/15, 22:00,   2.6,  99,   5.7,   6.3,   8.0,   0.0,  0.00, 
 07/11/15, 23:00,   1.4,  99,   5.6,   6.3,   8.0,   0.0,  0.00, 
 07/11/16, 00:00,   0.5,  99,   5.6,   6.4,   8.0,   0.0,  0.00, 
 07/11/16, 01:00,   0.0,  99,   5.4,   6.4,   8.0,   0.0,  0.00, 